Flight Track Log - Related Links

Times and Time Zones

All times are in EDT time to prevent confusion due to time zone crossing. See the SWA2182 flight status page for this flight to view local times or setup timezone preferences in your user account.

Time Position Orientation Groundspeed Altitude Reporting Facility
EDT Latitude Longitude Course Direction KTS MPH feet Rate Location/Type
Thu 09:12:08 AM 38.7333 -121.5833 142° Southeast 186 214 2,400  Level Northern Cal TRACON
Thu 09:13:02 AM 38.6833 -121.5333 142° Southeast 231 266 5,300 3,579 Climbing Northern Cal TRACON
Thu 09:14:02 AM 38.6333 -121.4667 134° Southeast 269 310 9,200 3,569 Climbing Northern Cal TRACON
Thu 09:15:35 AM 38.5614 -121.3253 123° Southeast 332 382 14,400 3,351 Climbing Oakland Center
Thu 09:16:36 AM 38.5058 -121.2139 122° Southeast 363 418 17,800 3,223 Climbing Oakland Center
Thu 09:17:00 AM 38.1499 -120.5999 142° Southeast  Level FlightAware Approximate
Thu 09:17:36 AM 38.4497 -121.1061 124° Southeast 382 440 20,900  Level Oakland Center
Thu 09:18:36 AM 38.3861 -120.9811 123° Southeast 412 474 23,900 2,727 Climbing Oakland Center
Thu 09:19:37 AM 38.3194 -120.8508 123° Southeast 437 503 26,400 2,430 Climbing Oakland Center
Thu 09:20:37 AM 38.2486 -120.7153 124° Southeast 456 525 28,800 1,289 Climbing Oakland Center
Thu 09:21:38 AM 38.1517 -120.6006 137° Southeast 476 548 29,000 98 Climbing Oakland Center
Thu 09:22:39 AM 38.0461 -120.4989 143° Southeast 477 549 29,000 50 Level Oakland Center
Thu 09:23:39 AM 37.9417 -120.3964 142° Southeast 474 545 29,100 1,041 Climbing Oakland Center
Thu 09:24:40 AM 37.8325 -120.3014 145° Southeast 474 545 31,100 2,132 Climbing Oakland Center
Thu 09:25:40 AM 37.6756 -120.2250 159° South 497 572 33,400 2,182 Climbing Oakland Center
Thu 09:26:41 AM 37.5444 -120.1597 158° South 504 580 35,500 2,115 Climbing Oakland Center
Thu 09:27:42 AM 37.4100 -120.0986 160° South 508 585 37,700 1,835 Climbing Oakland Center
Thu 09:28:42 AM 37.2822 -120.0344 158° South 489 563 39,200 1,488 Climbing Oakland Center
Thu 09:29:43 AM 37.1556 -119.9708 158° South 488 562 40,700 885 Climbing Oakland Center
Thu 09:30:44 AM 37.0317 -119.9072 158° South 486 559 41,000 149 Climbing Oakland Center
Thu 09:31:44 AM 36.9061 -119.8464 159° South 485 558 41,000  Level Oakland Center
Thu 09:32:45 AM 36.7825 -119.7844 158° South 478 550 41,000  Level Oakland Center
Thu 09:33:46 AM 36.6567 -119.7194 157° South 484 557 41,000  Level Oakland Center
Thu 09:34:46 AM 36.5311 -119.6583 159° South 485 558 41,000  Level Oakland Center
Thu 09:35:47 AM 36.4078 -119.5975 158° South 479 551 41,000  Level Oakland Center
Thu 09:36:48 AM 36.2833 -119.5367 158° South 479 551 41,000  Level Oakland Center
Thu 09:37:49 AM 36.1586 -119.4764 159° South 480 552 41,000  Level Oakland Center
Thu 09:38:49 AM 36.0339 -119.4167 159° South 479 551 41,000  Level Oakland Center
Thu 09:39:50 AM 35.9119 -119.3600 159° South 471 542 41,000  Level Oakland Center
Thu 09:40:51 AM 35.7878 -119.3011 159° South 471 542 41,000  Level Oakland Center
Thu 09:41:52 AM 35.6592 -119.2394 159° South 483 556 41,000  Level Oakland Center
Thu 09:43:00 AM 35.5086 -119.1669 159° South 485 558 41,000  Level Los Angeles Center
Thu 09:44:01 AM 35.3833 -119.1075 159° South 483 556 41,000  Level Los Angeles Center
Thu 09:45:02 AM 35.2572 -119.0478 159° South 484 557 41,000  Level Los Angeles Center
Thu 09:46:04 AM 35.1306 -118.9875 159° South 485 558 41,000  Level Los Angeles Center
Thu 09:47:05 AM 35.0033 -118.9286 159° South 487 560 41,000  Level Los Angeles Center
Thu 09:48:06 AM 34.8775 -118.8700 159° South 485 558 41,000  Level Los Angeles Center
Thu 09:49:08 AM 34.7517 -118.8111 159° South 485 558 41,000  Level Los Angeles Center
Thu 09:50:09 AM 34.6033 -118.7428 159° South 478 550 41,000  Level Los Angeles Center
Thu 09:51:11 AM 34.4786 -118.6850 159° South 480 552 41,000  Level Los Angeles Center
Thu 09:52:12 AM 34.3542 -118.6292 160° South 478 550 41,000  Level Los Angeles Center
Thu 09:53:14 AM 34.2311 -118.5689 158° South 477 549 41,000  Level Los Angeles Center
Thu 09:54:15 AM 34.1072 -118.5119 159° South 477 549 41,000 -537 Level Los Angeles Center
Thu 09:55:17 AM 33.9814 -118.4556 160° South 480 552 39,900 -2,000 Descending Los Angeles Center
Thu 09:56:18 AM 33.8744 -118.3544 142° Southeast 494 568 36,900 -3,366 Descending Los Angeles Center
Thu 09:57:20 AM 33.7672 -118.2161 133° Southeast 505 581 33,000 -3,415 Descending Los Angeles Center
Thu 09:58:21 AM 33.6739 -118.0981 134° Southeast 508 585 29,900 -3,122 Descending Los Angeles Center
Thu 09:59:23 AM 33.5808 -117.9806 134° Southeast 492 566 26,600 -2,878 Descending Los Angeles Center
Thu 10:00:24 AM 33.4911 -117.8678 134° Southeast 476 548 24,000 -2,390 Descending Los Angeles Center
Thu 10:01:26 AM 33.3908 -117.7431 134° Southeast 440 506 21,700 -2,341 Descending Los Angeles Center
Thu 10:02:27 AM 33.3114 -117.6403 133° Southeast 427 491 19,200 -2,374 Descending Los Angeles Center
Thu 10:02:57 AM 33.2667 -117.5833 133° Southeast 416 479 18,100 -2,286 Descending Southern California TRACON
Thu 10:03:51 AM 33.1833 -117.5167 146° Southeast 416 479 16,000 -2,300 Descending Southern California TRACON
Thu 10:04:57 AM 33.0833 -117.4333 145° Southeast 376 433 13,500 -2,198 Descending Southern California TRACON
Thu 10:05:32 AM 33.0511 -117.3986 138° Southeast 383 441 12,300 -2,556 Descending Los Angeles Center
Thu 10:05:51 AM 33.0167 -117.3667 142° Southeast 360 414 11,200 -1,747 Descending Southern California TRACON
Thu 10:06:51 AM 32.9333 -117.3167 153° Southeast 331 381 10,000 -1,300 Descending Southern California TRACON
Thu 10:07:51 AM 32.8667 -117.2500 140° Southeast 308 354 8,600 -1,189 Descending Southern California TRACON
Thu 10:08:37 AM 32.8261 -117.2192 147° Southeast 309 356 7,900 -1,222 Descending Los Angeles Center
Thu 10:09:39 AM 32.7931 -117.1222 112° Southeast 283 326 6,400 -1,116 Descending Los Angeles Center
Thu 10:10:03 AM 32.7833 -117.0833 107° East 247 284 6,300 -857 Descending Southern California TRACON
Thu 10:11:03 AM 32.7667 -117.0167 107° East 232 267 5,200 -1,250 Descending Southern California TRACON
Thu 10:12:03 AM 32.7167 -116.9833 151° Southeast 245 282 3,800 -1,450 Descending Southern California TRACON
Thu 10:13:03 AM 32.7000 -117.0500 253° West 242 278 2,300 -1,211 Descending Southern California TRACON
Thu 10:13:57 AM 32.7167 -117.1000 292° West 176 203 1,500 -750 Descending Southern California TRACON
Thu 10:14:47 AM 32.7197 -117.1278 277° West 191 220 1,000 -696 Descending Los Angeles Center
Thu 10:15:49 AM 32.7306 -117.1703 287° West 162 186 200 -774 Descending Los Angeles Center
Thu 10:17:00 AM 32.7333 -117.1833 287° West  Level FlightAware Approximate
Thu 10:24:00 AM 32.7336 -117.1897 287° West  Level Estimated

Login

Don't have an account? Register now (free) for customized features, flight alerts, and more!